Location: Unspecified
(0.0000°N, 0.0000°E)
Time: 05:56:32
(UTC+00:00)

Envisat - Visible Passes

Search period start: 23 May 2019 00:00
Search period end: 02 June 2019 00:00
Orbit: 764 x 766 km, 98.2° (Epoch: 22 May)

Date Brightness Start Highest point End Pass type
(mag) Time Alt. Az. Time Alt. Az. Time Alt. Az.
23 May 3.5 18:26:57 10° SE 18:31:40 39° ENE 18:36:22 10° N visible
23 May 5.8 20:08:40 10° WSW 20:10:23 12° WSW 20:12:07 10° W visible
24 May 4.5 19:29:13 10° SSW 19:33:47 34° WSW 19:38:19 10° NW visible
25 May 2.9 18:52:02 10° SSE 18:57:08 84° ENE 19:02:11 10° N visible
26 May 3.9 18:16:07 10° SE 18:20:28 29° ENE 18:24:48 10° NNE visible
26 May 5.6 19:56:07 10° SW 19:59:12 16° WSW 20:02:18 10° WNW visible
27 May 4.0 19:17:43 10° S 19:22:35 46° WSW 19:27:24 10° NNW visible
28 May 3.0 18:40:55 10° SSE 18:45:55 61° ENE 18:50:55 10° N visible
29 May 5.2 19:44:08 10° SSW 19:48:01 22° WSW 19:51:52 10° NW visible
30 May 3.4 19:06:21 10° S 19:11:22 63° WSW 19:16:23 10° NNW visible
31 May 3.4 18:29:54 10° SSE 18:34:43 44° ENE 18:39:31 10° N visible
31 May 6.0 20:13:13 10° WSW 20:13:26 10° WSW 20:13:38 10° W visible
01 Jun 4.7 19:32:25 10° SSW 19:36:49 30° WSW 19:41:12 10° NW visible
